TimeCDT,TemperatureF,Dew PointF,Humidity,Sea Level PressureIn,VisibilityMPH,Wind Direction,Wind SpeedMPH,Gust SpeedMPH,PrecipitationIn,Events,Conditions,WindDirDegrees,DateUTC
12:15 AM,44.6,14.0,29,30.30,10.0,WNW,5.8,-,N/A,,Clear,300,2013-03-15 05:15:00
12:35 AM,46.4,15.8,29,30.29,10.0,NW,6.9,-,N/A,,Clear,310,2013-03-15 05:35:00
12:55 AM,44.6,14.0,29,30.29,10.0,NNW,5.8,-,N/A,,Clear,330,2013-03-15 05:55:00
1:15 AM,41.0,12.2,31,30.29,10.0,NNW,5.8,-,N/A,,Clear,340,2013-03-15 06:15:00
1:35 AM,39.2,12.2,33,30.28,10.0,NNW,6.9,-,N/A,,Clear,330,2013-03-15 06:35:00
1:55 AM,41.0,14.0,33,30.28,10.0,NNW,8.1,-,N/A,,Clear,340,2013-03-15 06:55:00
2:15 AM,41.0,14.0,33,30.28,10.0,NNW,4.6,-,N/A,,Clear,340,2013-03-15 07:15:00
2:35 AM,39.2,14.0,36,30.28,10.0,NNW,5.8,-,N/A,,Clear,340,2013-03-15 07:35:00
2:55 AM,41.0,15.8,36,30.27,10.0,NNW,8.1,-,N/A,,Clear,340,2013-03-15 07:55:00
3:15 AM,39.2,15.8,39,30.27,10.0,North,4.6,-,N/A,,Clear,350,2013-03-15 08:15:00
3:35 AM,37.4,15.8,41,30.26,10.0,North,4.6,-,N/A,,Clear,360,2013-03-15 08:35:00
3:55 AM,37.4,15.8,41,30.25,10.0,North,3.5,-,N/A,,Clear,350,2013-03-15 08:55:00
4:15 AM,37.4,15.8,41,30.25,10.0,NNW,4.6,-,N/A,,Clear,340,2013-03-15 09:15:00
4:35 AM,35.6,15.8,44,30.25,10.0,North,5.8,-,N/A,,Clear,350,2013-03-15 09:35:00
4:55 AM,35.6,14.0,41,30.24,10.0,North,3.5,-,N/A,,Clear,10,2013-03-15 09:55:00
5:15 AM,35.6,15.8,44,30.24,10.0,North,5.8,-,N/A,,Clear,10,2013-03-15 10:15:00
5:35 AM,35.6,15.8,44,30.24,10.0,NNE,8.1,-,N/A,,Clear,20,2013-03-15 10:35:00
5:55 AM,33.8,15.8,48,30.24,10.0,North,5.8,-,N/A,,Clear,10,2013-03-15 10:55:00
6:15 AM,33.8,15.8,48,30.24,10.0,North,5.8,-,N/A,,Clear,350,2013-03-15 11:15:00
6:35 AM,33.8,17.6,52,30.24,10.0,NNW,8.1,-,N/A,,Clear,340,2013-03-15 11:35:00
6:55 AM,33.8,15.8,48,30.24,10.0,North,6.9,-,N/A,,Clear,350,2013-03-15 11:55:00
7:15 AM,33.8,15.8,48,30.24,10.0,North,5.8,-,N/A,,Clear,10,2013-03-15 12:15:00
7:35 AM,33.8,15.8,48,30.24,10.0,North,5.8,-,N/A,,Clear,10,2013-03-15 12:35:00
7:55 AM,33.8,15.8,48,30.25,10.0,North,3.5,-,N/A,,Clear,10,2013-03-15 12:55:00
8:15 AM,33.8,15.8,48,30.25,10.0,NNE,3.5,-,N/A,,Clear,20,2013-03-15 13:15:00
8:35 AM,33.8,15.8,48,30.25,10.0,North,3.5,-,N/A,,Clear,350,2013-03-15 13:35:00
8:55 AM,39.2,19.4,45,30.25,10.0,North,4.6,-,N/A,,Clear,10,2013-03-15 13:55:00
9:15 AM,46.4,23.0,40,30.26,10.0,North,3.5,-,N/A,,Clear,10,2013-03-15 14:15:00
9:35 AM,51.8,26.6,38,30.26,10.0,Calm,Calm,-,N/A,,Clear,0,2013-03-15 14:35:00
9:55 AM,55.4,26.6,33,30.27,10.0,Calm,Calm,-,N/A,,Clear,0,2013-03-15 14:55:00
10:15 AM,57.2,28.4,33,30.27,10.0,Calm,Calm,-,N/A,,Clear,0,2013-03-15 15:15:00
10:35 AM,60.8,28.4,29,30.27,10.0,SSW,3.5,-,N/A,,Clear,200,2013-03-15 15:35:00
10:55 AM,60.8,28.4,29,30.27,10.0,South,4.6,-,N/A,,Clear,190,2013-03-15 15:55:00
11:15 AM,62.6,28.4,27,30.27,10.0,South,6.9,-,N/A,,Clear,180,2013-03-15 16:15:00
11:35 AM,64.4,28.4,26,30.26,10.0,South,6.9,-,N/A,,Clear,180,2013-03-15 16:35:00
11:55 AM,66.2,28.4,24,30.26,10.0,South,8.1,-,N/A,,Clear,180,2013-03-15 16:55:00
12:15 PM,68.0,26.6,21,30.25,10.0,South,6.9,-,N/A,,Clear,170,2013-03-15 17:15:00
12:35 PM,69.8,24.8,18,30.24,10.0,SW,5.8,-,N/A,,Clear,220,2013-03-15 17:35:00
12:55 PM,73.4,23.0,15,30.24,10.0,SW,6.9,-,N/A,,Clear,220,2013-03-15 17:55:00
1:15 PM,73.4,21.2,14,30.22,10.0,South,4.6,-,N/A,,Clear,190,2013-03-15 18:15:00
1:35 PM,75.2,21.2,13,30.21,10.0,WSW,4.6,-,N/A,,Clear,240,2013-03-15 18:35:00
1:55 PM,73.4,19.4,13,30.19,10.0,SSW,9.2,-,N/A,,Clear,200,2013-03-15 18:55:00
2:15 PM,75.2,19.4,12,30.18,10.0,West,3.5,-,N/A,,Clear,260,2013-03-15 19:15:00
2:35 PM,78.8,19.4,11,30.17,10.0,SSW,6.9,-,N/A,,Clear,210,2013-03-15 19:35:00
2:55 PM,78.8,19.4,11,30.16,10.0,South,10.4,16.1,N/A,,Clear,190,2013-03-15 19:55:00
3:15 PM,77.0,19.4,12,30.14,10.0,South,6.9,-,N/A,,Clear,180,2013-03-15 20:15:00
3:35 PM,78.8,19.4,11,30.13,10.0,South,11.5,16.1,N/A,,Clear,190,2013-03-15 20:35:00
3:55 PM,78.8,19.4,11,30.12,10.0,SW,4.6,18.4,N/A,,Clear,220,2013-03-15 20:55:00
4:15 PM,78.8,19.4,11,30.11,10.0,WSW,11.5,-,N/A,,Clear,240,2013-03-15 21:15:00
4:35 PM,80.6,19.4,10,30.10,10.0,West,13.8,19.6,N/A,,Clear,280,2013-03-15 21:35:00
4:55 PM,80.6,19.4,10,30.10,10.0,SW,9.2,23.0,N/A,,Clear,220,2013-03-15 21:55:00
5:15 PM,80.6,19.4,10,30.09,10.0,WSW,12.7,-,N/A,,Clear,250,2013-03-15 22:15:00
5:35 PM,78.8,19.4,11,30.09,10.0,WSW,8.1,-,N/A,,Clear,250,2013-03-15 22:35:00
5:55 PM,78.8,19.4,11,30.09,10.0,WNW,9.2,-,N/A,,Clear,290,2013-03-15 22:55:00
6:15 PM,78.8,19.4,11,30.08,10.0,WNW,9.2,-,N/A,,Clear,300,2013-03-15 23:15:00
6:35 PM,77.0,17.6,11,30.08,10.0,West,11.5,-,N/A,,Clear,270,2013-03-15 23:35:00
6:55 PM,77.0,17.6,11,30.08,10.0,West,6.9,-,N/A,,Clear,280,2013-03-15 23:55:00
7:15 PM,77.0,17.6,11,30.08,10.0,WSW,6.9,-,N/A,,Clear,250,2013-03-16 00:15:00
7:35 PM,73.4,15.8,11,30.08,10.0,WSW,6.9,-,N/A,,Clear,240,2013-03-16 00:35:00
7:55 PM,71.6,14.0,11,30.08,10.0,West,5.8,-,N/A,,Clear,260,2013-03-16 00:55:00
8:15 PM,66.2,10.4,11,30.08,10.0,WSW,9.2,-,N/A,,Clear,250,2013-03-16 01:15:00
8:35 PM,62.6,8.6,12,30.08,10.0,West,6.9,-,N/A,,Clear,270,2013-03-16 01:35:00
8:55 PM,59.0,8.6,14,30.08,10.0,WNW,6.9,-,N/A,,Clear,290,2013-03-16 01:55:00
9:15 PM,55.4,8.6,15,30.08,10.0,WNW,6.9,-,N/A,,Clear,300,2013-03-16 02:15:00
9:35 PM,51.8,8.6,18,30.08,10.0,WNW,5.8,-,N/A,,Clear,300,2013-03-16 02:35:00
9:55 PM,53.6,10.4,18,30.09,10.0,ESE,5.8,-,N/A,,Clear,110,2013-03-16 02:55:00
10:15 PM,51.8,8.6,18,30.09,10.0,East,4.6,-,N/A,,Clear,80,2013-03-16 03:15:00
10:35 PM,48.2,8.6,20,30.09,10.0,East,4.6,-,N/A,,Clear,80,2013-03-16 03:35:00
10:55 PM,48.2,10.4,22,30.09,10.0,East,4.6,-,N/A,,Clear,100,2013-03-16 03:55:00
11:15 PM,46.4,10.4,23,30.09,10.0,ENE,3.5,-,N/A,,Clear,70,2013-03-16 04:15:00
11:35 PM,46.4,8.6,22,30.09,10.0,ENE,3.5,-,N/A,,Clear,60,2013-03-16 04:35:00
11:55 PM,41.0,6.8,24,30.08,10.0,NE,4.6,-,N/A,,Clear,40,2013-03-16 04:55:00